Погода в Бакчаре

Погода в Бакчаре : погода сейчас, прогноз погоды и архив. Всё, что Вы хотите узнать о погоде в Бакчаре!

Хотите узнать прогноз погоды в Бакчаре? Тогда Вам сюда: Погода в Бакчаре

Поиск расширенной информации на нашем сайте:

Другие новости

Новости СМИ2

Главная страница сайта

Новости сайта

03.07.2017

Напоминаем, что на нашем специализированном сайте Метеоцентр.Азия вы можете получить высокодетализированные автоматические прогнозы погоды по пунктам России, СНГ и мира в авиационном формате (включающие направление и скорость ветра, видимость, явления погоды, количество и форму облачности, нижнюю и верхнюю границу облачности).

Рекомендуем: лучшие русские мелодрамы смотреть

Погода в Бакчаре - сегодня

Время (UTC), дата Ветер
(°,м/с) 
Видим.   Явления Облачность Т
(°С)
Тd
(°С)
f(%) Тe
(°С)
Pmin
(гПа)
dP
(гПа)
Po
(мм)
O2
(г/м3)
Тmin Tmax R s Состояние
почвы
18 15.10.17 020 (С) 20000 м  {ливн. осадки}  10/8 600 м кучево-дожд., средняя 
[Cb cap|Ac trans]
+0.9 -3.1 75 +2  1009.5  -1  747  300           
21 15.10.17 тихо ()   20000 м    10/9 600 м кучево-дожд., средняя 
[Cb cap|Ac trans]
+1.2 -1.7 81 +1  1009.1  -0.4  747  300           
00 16.10.17 200 (Ю) 20000 м    10/10 600 м кучево-дожд. 
[Cb cap]
+2.4 -1.7 74 +2  1008.8  -0.2  746  298  +1.1    0.0    мокрая 
03 16.10.17 230 (ЮЗ) 20000 м  слаб. ливневой дождь  10/10 300 м кучево-дожд. 
[Cb cap]
+2.4 -0.5 81 +3  1010.8  748  299           
06 16.10.17 270 (З) 20000 м  в посл. час ливневой дождь  10/10 600 м кучево-дожд. 
[Cb cap]
+2.8 -1.7 72 +2  1012.4  1.6  749  299           
09 16.10.17 300 (СЗ) 20000 м  {ливн. осадки}  10/8 600 м кучево-дожд., средняя 
[Cb cap|Ac trans]
+4.5 -2.3 61 +3  1014.9  2.5  751  298           
12 16.10.17 350 (С) 20000 м  {ливн. осадки}  9/6 600 м кучево-дожд., средняя 
[Cb cap|Ac trans]
+3.4 -4.6 56 +4  1017.6  2.6  753  300    +6.3  0.0     
15 16.10.17 340 (С) 20000 м    10/8 600 м кучево-дожд., средняя 
[Cb cap|Ac trans]
+2.4 -2.2 72 +2  1021.1  3.4  755  302           
18 16.10.17 330 (СЗ) 20000 м    10/8 600 м кучево-дожд., средняя 
[Cb cap|Ac trans]
+1.6 -1.6 79 +2  1022.8  1.6  757  303           
21 16.10.17 330 (СЗ) 20000 м    3/0 средняя 
[Ac trans]
-1.9 -3.2 91 -1  1024.3  1.4  758  308           
00 17.10.17 010 (С) 20000 м    3/0 средняя 
[Sc|Ac trans]
-4.5 -5 96 -4  1026.2  1.6  759  312  -4.5        замёрзшая 
03 17.10.17 360 (С) 1000 м  дымка  10/10 300 м 
[St]
-3.5 -4 96 -5  1028  1.9  760  311  -5.1         
06 17.10.17 030 (СВ) 20000 м    10/10 300 м 
[St]
-2.4 -2.9 96 -3  1028.7  0.7  761  310           
09 17.10.17 040 (СВ) 20000 м    10/10 300 м 
[St]
-1.6 -2.8 92 -3  1027.8  -0.7  760  309           
12 17.10.17 090 (В) 20000 м    10/10 300 м 
[St]
-2.5 -3.1 96 -5  1027.6  -0.4  760  309    -1.2       
15 17.10.17 080 (В) 20000 м    10/10 300 м 
[St]
-2.9 -3.6 95 -5  1027.3  -0.3  760  310           
18 17.10.17 090 (В) 10 км  слаб. снег  10/10 300 м 
[Ac As]
-3 -3.4 97 -4  1025.7  -1.6  759  309           
21 17.10.17 090 (В) 20000 м  слаб. снег  10/10 300 м 
[Frnb|Ns]
-2.8 -3.5 95 -5  1024.3  -1.3  758  309           
00 18.10.17 100 (В) 20000 м  {снег}  10/10 300 м 
[Frnb|Ns]
-2.7 -3.4 95 -5  1022.8  -1.5  757  308  -3.2    0.0  равномерный
сухой снег
100% 
03 18.10.17 100 (В) 20000 м    10/5 600 м средняя 
[Sc|As op]
-2.7 -4 91 -4  1021.8  -1  756  308           
06 18.10.17 060 (СВ) 20000 м    4/4 600 м кучево-дожд. 
[Cb cap]
-1.4 -4.1 82 -3  1019.9  -1.8  754  306           
09 18.10.17 060 (СВ) 20000 м    1/1 600 м 
[Sc]
+1.7 -4.1 65 1018.2  -1.5  753  302           
12 18.10.17 030 (СВ) 20000 м    ясно 600 м 
-0.9 -4.4 77 -2  1017.7  -0.6  753  305    +1.9       
15 18.10.17 090 (В) 20000 м    6/3 600 м средняя 
[Sc|Ac As]
-1.8 -3.4 89 -4  1016.6  -1.2  752  305           
18 18.10.17 120 (ЮВ) 20000 м    10/5 600 м средняя 
[Sc|Ac As]
-0.8 -2.4 89 1015.7  -0.8  751  304           
Время (UTC), дата Ветер
(°,м/с) 
Видим.   Явления Облачность Т
(°С)
Тd
(°С)
f(%) Тe
(°С)
Pmin
(гПа)
dP
(гПа)
Po
(мм)
O2
(г/м3)
Тmin Tmax R s Состояние
почвы

Для получения пояснительной информации подведите курсор к названию столбца.

ПОГОДА в Бакчаре - архив

Всё, что Вы хотите узнать о погоде в Бакчаре - удобно и подробно!

Выберите нужную дату (начиная с 1 января 2015* года) и нажмите кнопку "Найти".
Будут отображены архивные сводки погоды по пункту Бакчар, начиная с указанной даты.


Отображать данные в формате CSV (для использования в таблицах Excel)


Внимание! Наш архив погоды предназначен исключительно для личного некоммерческого использования в познавательных целях. Если Вам необходимы официальные справки о состоянии погоды (для производственных, юридических, коммерческих и т.п. целей), обращайтесь в органы Росгидромета.

*Примечание: данная дата относится к архиву по метеостанциям СССР (Россия, СНГ, Балтия).
Архив по метеостанциям Зарубежной Европы и Азии (кроме Китая) хранится 10 дней, по другим регионам земного шара (Китай, Африка, Америка, Австралия, Океания) - 1 день.

Бакчар - район местоположения метеостанции


Название, широта, долгота, высота метеостанции:
Бакчар 57.1°ш. 81.9°д. 110 м над ур. моря [Российская Федерация]

Дополнительная информация

В oтличие oт бoльшинства пoгoдных сайтoв мы публикуем пoдрoбную метеoинфoрмацию в детальнoм прoфессиoнальнoм фoрмате.

Характеристики температуры и влажнoсти вoздуха измеряются на высoте 2 м в тени вдали oт зданий и деревьев.
Скoрoсть ветра измеряется на высoте 10 м (на урoвне рoста челoвека скoрoсть ветра ниже в 1.5-2 раза). Если метеoстанция нахoдится в гoрoде или в лесу, тo скoрoсть ветра занижена на 2-4 м/с пo сравнению с oткрытым местoм. Скoрoсть ветра над акватoриями крупных рек и oзёр, а также на вершинах хoлмoв на 2-5 м/с выше, чем в oбычных услoвиях.
Атмoсфернoе давление в разных тoчках местнoсти мoжет значительнo oтличаться oт давления на метеoстанции, в зависимoсти oт услoвий рельефа (при пoдъёме на 10 м давление пoнижается примернo на 1 мм рт.ст.).